Wind_Speed
35 37 38 39 39 40 41 41 41 40 40 37 35 36 34 32 30 30 30 30 31 30 29 29 29 27 28 28 27 26 25 23 21 19 18 18 17 17 17 18 18 19 19
38 39 40 41 42 42 42 43 43 43 42 42 38 36 34 34 31 30 30 31 32 30 30 30 30 30 30 30 30 29 28 26 26 23 22 21 20 19 19 19 20 21 21
35 36 38 41 43 45 45 44 43 44 43 44 42 39 35 35 34 32 31 27 26 27 28 29 31 29 37 30 27 27 28 28 29 28 27 26 24 23 22 21 22 22 23
28 30 32 34 36 41 43 44 43 41 43 43 43 41 40 38 38 35 32 31 28 29 30 29 34 32 44 41 32 32 28 30 28 29 31 31 29 27 25 25 25 24 25
24 23 25 28 32 36 40 40 39 38 35 38 40 42 39 39 39 39 34 32 31 32 33 32 34 32 31 32 30 32 37 40 32 30 27 30 32 31 29 29 28 27 27
24 26 25 27 29 32 35 36 36 32 33 35 38 40 40 38 36 37 37 37 35 37 37 36 35 34 33 32 32 32 33 32 34 41 33 33 33 35 35 35 34 33 31
22 22 25 25 27 28 28 28 28 30 29 35 33 36 40 37 43 31 37 39 40 41 42 42 41 40 38 38 37 37 38 41 42 43 43 42 39 38 40 38 39 38 37
21 23 24 25 21 24 22 22 24 26 27 30 39 29 37 34 30 34 32 42 38 39 42 42 43 43 42 42 42 43 44 46 48 49 48 46 45 45 44 43 44 40 40
19 22 24 24 25 24 23 20 20 23 23 20 28 38 36 39 34 29 32 28 29 39 39 42 40 42 43 45 48 51 53 53 53 54 54 52 47 49 49 48 48 47 48
17 19 22 24 23 23 23 25 24 19 17 10 14 17 34 34 35 37 35 31 36 32 32 39 49 49 50 50 53 57 57 57 57 56 56 56 54 47 51 52 52 51 51
16 18 18 20 17 17 19 21 21 21 18 23 23 22 24 26 28 30 35 27 26 30 33 33 37 38 41 46 49 49 52 53 53 52 52 53 56 55 47 50 53 54 54
13 15 17 19 20 20 21 19 16 15 15 16 17 18 22 24 24 25 29 29 26 27 31 32 36 40 39 40 40 39 41 46 48 48 48 50 56 58 57 52 52 53 55
14 15 16 17 17 18 19 20 21 20 18 19 20 21 22 23 25 29 33 33 32 29 26 26 32 33 35 37 39 39 37 37 44 47 47 50 53 56 58 57 55 56 54
14 14 14 15 16 18 20 22 23 24 24 24 24 24 25 27 29 32 35 37 38 38 33 28 30 34 38 39 39 39 40 40 40 43 48 53 49 55 56 59 61 59 57
14 15 16 16 18 21 23 24 25 24 24 25 26 26 27 28 29 31 33 37 39 41 40 31 33 31 34 36 38 39 39 39 42 43 44 46 53 48 56 60 63 63 61
17 17 18 20 23 26 28 29 29 29 29 28 28 28 28 28 29 30 31 33 36 39 40 30 31 34 34 36 36 38 37 37 38 44 46 46 51 49 50 57 61 66 66
18 19 20 23 26 28 30 31 31 31 31 30 30 29 29 29 29 29 29 30 31 35 39 33 29 30 31 33 34 36 39 39 39 40 39 42 44 48 45 57 62 57 65
18 19 20 23 26 28 30 31 32 33 32 32 31 30 29 29 30 30 30 31 31 33 36 36 30 28 27 31 32 33 35 37 38 40 41 39 39 39 47 47 52 54 57
20 21 22 24 27 28 30 31 32 31 31 31 31 30 30 29 29 30 30 29 28 28 29 32 31 30 29 31 32 32 33 33 34 37 39 41 40 38 35 39 39 45 53
22 22 23 26 27 29 31 33 33 33 33 32 31 31 30 29 28 25 23 25 27 28 30 32 33 34 32 32 35 37 36 38 37 37 38 38 39 39 38 34 43 37 46
23 22 24 26 28 30 33 35 34 34 32 32 32 30 30 28 24 24 25 27 29 29 29 31 32 34 36 36 37 39 42 41 40 39 39 37 36 37 37 38 35 46 41
25 24 25 27 29 31 34 35 36 33 33 33 30 31 28 24 25 27 29 31 30 31 32 34 34 34 35 36 37 39 41 44 45 42 45 39 40 36 35 36 38 37 45
26 26 27 27 30 32 35 37 37 34 33 32 32 30 25 26 27 29 30 32 32 33 34 36 36 35 36 38 41 43 45 46 46 42 45 47 41 39 35 33 36 39 37
28 27 27 28 31 33 36 38 38 35 34 32 33 28 25 27 29 31 31 32 32 31 33 35 35 36 37 39 41 44 46 47 45 43 43 47 42 43 37 34 34 38 40
29 28 28 29 31 34 36 38 38 36 33 32 31 28 28 29 29 31 34 35 34 31 33 33 33 35 36 37 40 43 43 45 46 44 41 47 44 46 42 35 34 35 38
29 28 28 30 32 34 37 38 38 36 33 32 28 27 29 31 32 33 35 37 36 35 35 34 33 33 33 33 35 38 40 41 44 47 40 46 45 44 47 37 32 31 36
Wind_Direction
281 281 280 276 272 270 268 265 261 260 261 262 262 263 263 263 264 262 260 260 262 263 263 261 261 261 262 262 263 261 261 264 266 267 268 264 260 256 254 251 249 250 253
284 283 282 281 280 276 271 266 261 257 257 259 259 261 261 260 258 260 262 259 260 260 261 263 263 262 262 263 263 262 261 260 263 264 264 263 261 258 254 252 250 248 247
287 288 286 283 281 279 277 274 267 261 255 253 257 256 260 261 256 257 259 258 259 262 263 265 264 267 255 256 260 260 260 260 261 261 262 262 260 259 256 256 253 249 249
295 295 295 293 290 285 281 276 273 268 261 255 254 256 256 258 257 257 259 259 261 263 263 268 272 278 263 282 274 262 259 256 257 262 259 259 259 258 258 260 258 255 251
304 304 305 302 296 291 286 278 272 270 265 253 255 253 254 255 257 258 256 254 255 258 263 267 269 270 267 270 275 271 270 263 262 261 267 260 259 256 257 259 257 256 256
307 304 308 312 310 308 298 286 277 270 265 257 261 257 257 256 256 257 253 255 254 258 260 261 262 263 264 265 267 270 274 275 274 259 277 273 268 267 263 259 257 257 259
314 312 321 322 318 319 313 295 280 271 264 259 264 258 253 256 252 254 256 255 257 253 254 257 259 259 258 260 263 267 271 275 277 277 275 273 266 260 263 267 259 256 258
316 318 324 325 325 326 316 305 294 286 274 268 260 277 258 270 269 269 257 254 252 255 253 255 258 258 259 260 263 264 266 268 270 272 270 268 266 262 258 258 259 258 256
318 325 332 328 322 324 323 306 299 295 302 294 267 260 269 273 276 278 276 275 276 273 246 249 250 254 258 262 265 266 267 270 271 272 271 266 263 260 259 256 255 254 254
334 334 331 329 325 325 322 320 324 300 276 285 309 286 268 280 282 283 280 268 266 271 269 268 260 251 254 259 267 271 273 271 270 270 267 265 262 259 256 256 253 252 252
346 343 347 349 341 331 324 313 313 320 313 280 290 281 276 279 285 288 287 281 270 264 268 273 275 276 271 268 272 274 273 272 270 267 266 261 257 256 253 254 253 251 251
344 341 340 342 344 343 343 347 348 328 309 295 288 289 287 289 291 291 285 285 280 271 273 272 273 273 275 275 275 276 273 268 265 261 260 258 256 252 249 247 251 250 249
343 340 339 337 335 335 336 336 335 332 326 319 313 310 305 299 297 296 295 294 291 284 278 282 277 275 274 273 273 277 277 272 265 263 258 255 255 253 251 248 248 250 249
331 327 324 324 328 332 332 329 327 324 320 315 310 306 301 298 295 293 293 294 293 291 285 283 281 282 281 280 279 279 276 275 276 272 269 260 260 251 248 247 247 248 248
316 319 323 324 324 325 325 324 320 316 311 307 303 299 295 292 290 289 289 289 291 293 294 298 289 281 279 278 279 279 279 278 276 278 270 273 266 262 247 247 247 246 247
317 318 319 321 323 324 323 322 321 319 316 314 310 307 304 301 298 296 294 295 296 296 294 293 291 290 285 282 280 281 279 277 275 273 273 277 265 263 264 249 247 247 246
309 308 313 318 321 321 320 320 319 317 315 313 311 308 306 303 301 298 296 294 292 293 297 303 301 296 295 290 288 285 284 283 281 280 280 276 275 259 262 256 251 246 248
299 302 308 314 316 317 318 320 320 319 317 314 311 309 308 306 305 303 302 302 302 303 304 306 310 308 304 299 297 293 291 290 288 286 282 279 278 275 273 265 246 244 248
300 304 307 311 313 316 319 320 319 317 315 312 310 308 307 306 305 304 305 305 307 307 307 308 310 309 309 304 303 302 300 297 295 292 290 286 283 278 278 266 265 242 240
300 301 304 309 314 318 321 321 320 320 317 314 312 310 307 307 305 303 304 304 303 303 304 305 306 307 307 303 303 301 298 297 294 292 290 290 289 283 277 270 264 259 233
295 296 302 308 313 317 319 320 320 319 315 312 310 307 307 305 301 301 303 304 304 303 302 302 302 302 303 302 301 300 299 298 295 291 288 286 284 282 282 276 266 263 258
293 294 300 307 312 316 318 320 319 318 314 312 308 309 305 300 301 302 304 305 305 304 303 303 302 304 304 304 303 304 303 300 297 293 287 283 282 279 279 278 272 261 260
292 293 299 305 310 316 319 319 319 317 315 312 310 308 301 302 303 304 305 304 304 304 304 302 304 305 306 307 306 304 302 301 298 295 291 285 284 280 280 278 271 267 262
290 291 297 305 311 315 318 318 317 317 314 311 310 304 300 301 305 306 304 304 303 303 298 298 301 303 303 303 303 303 302 300 297 295 293 288 285 284 280 279 274 266 263
290 292 299 305 309 314 317 315 316 316 312 311 309 302 301 303 304 303 304 306 305 301 295 295 296 297 297 299 299 299 299 298 297 294 293 292 288 284 281 276 275 267 261
290 290 298 303 308 313 313 315 316 315 311 312 305 300 302 305 307 307 306 307 305 302 299 296 292 288 288 289 292 294 296 298 299 298 302 295 293 292 286 275 272 268 259
Height
3134 3133 3132 3131 3131 3131 3130 3131 3131 3133 3133 3134 3134 3135 3135 3135 3135 3136 3137 3137 3137 3138 3139 3140 3140 3140 3140 3140 3140 3140 3141 3141 3141 3141 3141 3141 3141 3141 3142 3142 3143 3144 3145
3127 3126 3125 3123 3122 3121 3121 3120 3121 3121 3123 3124 3126 3127 3127 3127 3128 3128 3129 3130 3130 3131 3132 3133 3134 3134 3134 3134 3134 3135 3135 3135 3135 3136 3136 3137 3137 3137 3137 3137 3138 3138 3139
3120 3118 3116 3115 3113 3112 3111 3110 3110 3111 3112 3114 3115 3118 3119 3120 3121 3121 3122 3123 3124 3125 3124 3125 3126 3126 3127 3127 3127 3127 3128 3129 3130 3130 3131 3131 3132 3132 3132 3133 3133 3133 3134
3113 3111 3108 3106 3104 3102 3101 3101 3100 3101 3101 3104 3105 3108 3109 3111 3113 3114 3115 3117 3118 3119 3118 3118 3117 3118 3119 3118 3119 3120 3119 3121 3122 3122 3123 3124 3125 3126 3126 3127 3128 3129 3129
3108 3105 3102 3100 3097 3094 3092 3090 3089 3090 3091 3092 3094 3097 3099 3101 3103 3105 3107 3109 3109 3110 3110 3111 3110 3110 3110 3111 3111 3111 3112 3112 3113 3112 3112 3114 3117 3118 3119 3120 3121 3122 3123
3102 3099 3095 3092 3089 3087 3084 3083 3082 3081 3082 3084 3086 3088 3089 3091 3093 3095 3097 3099 3099 3101 3102 3101 3101 3101 3102 3103 3103 3104 3105 3104 3105 3104 3105 3107 3109 3110 3111 3112 3113 3115 3116
3097 3093 3090 3087 3083 3081 3078 3075 3074 3075 3074 3075 3077 3078 3080 3081 3084 3084 3087 3089 3090 3090 3091 3092 3093 3093 3094 3094 3095 3096 3096 3095 3096 3097 3097 3098 3100 3101 3102 3103 3103 3106 3108
3091 3088 3085 3081 3079 3076 3073 3071 3069 3068 3068 3069 3069 3070 3071 3074 3073 3074 3071 3077 3077 3078 3080 3081 3082 3083 3083 3083 3084 3085 3084 3083 3083 3084 3085 3085 3087 3089 3091 3093 3095 3096 3098
3086 3083 3080 3078 3075 3072 3070 3068 3066 3064 3063 3062 3062 3064 3065 3065 3068 3069 3070 3068 3070 3070 3067 3068 3068 3070 3071 3072 3071 3070 3071 3073 3073 3072 3073 3074 3074 3076 3079 3081 3083 3085 3088
3083 3080 3078 3075 3072 3069 3067 3064 3061 3060 3060 3058 3057 3057 3058 3058 3060 3062 3062 3062 3061 3061 3059 3054 3056 3056 3058 3059 3059 3058 3058 3058 3058 3058 3059 3060 3062 3062 3065 3067 3070 3072 3075
3080 3078 3076 3072 3069 3067 3064 3061 3058 3056 3054 3054 3054 3052 3051 3050 3050 3048 3047 3052 3052 3050 3051 3048 3046 3045 3045 3047 3046 3045 3045 3043 3043 3043 3044 3046 3046 3047 3050 3052 3054 3058 3062
3079 3076 3073 3071 3068 3065 3063 3060 3058 3054 3052 3051 3050 3048 3046 3044 3043 3041 3040 3040 3041 3043 3042 3041 3039 3036 3037 3036 3033 3030 3029 3028 3028 3029 3029 3029 3029 3032 3034 3038 3040 3042 3046
3076 3074 3071 3069 3066 3063 3060 3057 3054 3053 3051 3048 3045 3042 3040 3038 3035 3033 3030 3029 3029 3032 3033 3033 3029 3026 3025 3023 3022 3020 3019 3015 3015 3014 3014 3015 3014 3017 3022 3025 3026 3028 3032
3073 3070 3068 3066 3064 3061 3059 3056 3052 3049 3046 3043 3040 3038 3035 3033 3030 3028 3024 3020 3018 3016 3021 3025 3022 3018 3013 3011 3009 3009 3007 3005 3003 3000 3000 3002 3000 3004 3005 3008 3011 3014 3017
3068 3066 3065 3063 3061 3058 3055 3052 3049 3045 3041 3038 3035 3033 3031 3028 3025 3022 3018 3014 3010 3006 3004 3010 3008 3009 3005 3002 2999 2998 2995 2993 2991 2989 2989 2989 2987 2988 2989 2991 2993 2997 3001
3064 3062 3059 3057 3054 3052 3049 3045 3041 3037 3033 3030 3027 3024 3021 3019 3016 3013 3010 3006 3001 2997 2994 3003 2999 2994 2992 2990 2989 2986 2984 2982 2980 2978 2977 2975 2973 2975 2975 2975 2978 2981 2985
3060 3058 3055 3053 3049 3046 3042 3038 3034 3030 3026 3022 3019 3016 3013 3010 3008 3005 3003 3000 2997 2991 2985 2987 2987 2984 2981 2978 2977 2975 2972 2971 2969 2967 2966 2963 2961 2961 2961 2961 2962 2964 2969
3057 3055 3053 3050 3046 3042 3038 3034 3029 3025 3020 3016 3011 3007 3004 3001 2998 2995 2992 2988 2985 2981 2977 2974 2975 2974 2972 2967 2965 2964 2962 2959 2957 2955 2953 2952 2950 2948 2948 2948 2946 2950 2951
3053 3052 3049 3046 3042 3038 3034 3029 3024 3019 3015 3010 3006 3002 2998 2995 2991 2988 2985 2981 2978 2975 2971 2967 2966 2964 2963 2959 2957 2954 2953 2951 2948 2945 2941 2939 2938 2936 2935 2935 2934 2933 2936
3047 3044 3041 3038 3034 3029 3025 3021 3016 3011 3006 3002 2998 2994 2990 2987 2984 2981 2979 2976 2973 2969 2966 2962 2958 2955 2954 2952 2948 2944 2944 2940 2940 2936 2933 2929 2926 2924 2924 2924 2925 2924 2923
3040 3037 3034 3031 3028 3024 3020 3015 3010 3005 3000 2995 2991 2987 2983 2979 2977 2974 2972 2970 2966 2963 2959 2955 2952 2948 2945 2943 2939 2936 2931 2929 2927 2925 2922 2920 2917 2914 2913 2912 2911 2912 2912
3034 3031 3028 3025 3021 3017 3013 3008 3003 2999 2993 2988 2984 2980 2976 2973 2971 2968 2965 2961 2959 2955 2951 2947 2943 2940 2936 2932 2928 2924 2920 2916 2913 2914 2907 2910 2904 2905 2903 2900 2899 2899 2901
3026 3024 3021 3018 3014 3010 3006 3001 2996 2991 2985 2980 2977 2973 2969 2966 2963 2960 2957 2953 2950 2946 2940 2936 2933 2930 2925 2921 2916 2913 2909 2905 2902 2901 2894 2891 2892 2891 2891 2890 2887 2887 2888
3019 3016 3014 3011 3007 3002 2998 2993 2988 2983 2978 2973 2969 2965 2962 2959 2956 2952 2948 2945 2941 2938 2933 2928 2923 2920 2915 2911 2906 2901 2896 2893 2891 2889 2884 2876 2879 2875 2879 2878 2876 2875 2875
3011 3009 3007 3003 3000 2995 2990 2986 2980 2975 2970 2966 2961 2956 2954 2951 2948 2944 2939 2935 2931 2928 2923 2919 2914 2910 2905 2899 2894 2889 2886 2880 2877 2878 2876 2864 2866 2860 2863 2866 2864 2864 2864
3004 3001 2998 2996 2992 2988 2983 2978 2972 2967 2962 2958 2954 2950 2946 2942 2939 2935 2930 2925 2920 2917 2912 2908 2904 2900 2895 2890 2885 2879 2874 2869 2865 2862 2865 2855 2853 2849 2844 2852 2853 2852 2852